Regional Weather Roundup
Issued by NWS Sioux Falls, SD

Home | Current Version | Previous Version | Text Only | Print | Product List | Glossary Off
Versions: 1 2 3 4 5 6 7 8 9 10 11 12 13 14 15 16 17 18 19 20 21 22 23 24 25 26 27 28 29 30 31 32 33 34 35 36 37 38 39 40 41 42 43 44 45 46 47 48 49 50

000
ASUS43 KFSD 191702
RWRFSD

WEATHER ROUNDUP FOR SE SOUTH DAKOTA/SW MINNESOTA/NW IOWA
NATIONAL WEATHER SERVICE SIOUX FALLS SD
1100 AM CST FRI JAN 19 2018

NOTE: "FAIR" INDICATES FEW OR NO CLOUDS BELOW 12,000 FEET WITH NO
SIGNIFICANT WEATHER AND OR OBSTRUCTIONS TO VISIBILITY.


SDZ038>040-050-052>070-191800-
SOUTHEAST SOUTH DAKOTA

CITY           SKY/WX    TMP DP  RH WIND       PRES   REMARKS
BROOKINGS      CLOUDY    36  29  75 SW6       29.53R
CHAMBERLAIN    PTSUNNY   41  34  75 W6        29.58R
HURON          PTSUNNY   36  30  79 W5        29.56R
MADISON        FAIR      37  36  93 SW15      29.53S
MITCHELL       PTSUNNY   40  32  73 S6        29.57R
SIOUX FALLS    CLOUDY    41  32  70 SW7       29.57R
WINNER         FAIR      53  33  46 N9        29.60R
YANKTON        CLOUDY    47  32  56 CALM      29.58F
$$

MNZ071-072-080-081-089-090-097-098-191800-
SOUTHWEST MINNESOTA

CITY           SKY/WX    TMP DP  RH WIND       PRES   REMARKS
FAIRMONT       CLOUDY    35  27  72 S16       29.57F WCI  25
JACKSON        CLOUDY    36  28  75 SW13      29.57S
LUVERNE        CLOUDY    34  30  86 S7        29.58R WCI  28
MARSHALL       CLOUDY    42  31  64 W15G24    29.50F
MONTEVIDEO     CLOUDY    39  30  70 W6        29.51S
PIPESTONE      CLOUDY    36  28  75 SW12      29.54R
REDWOOD FALLS  CLOUDY    37  30  75 S8        29.52F
WINDOM         CLOUDY    37  19  48 SW13G20   29.54S
WORTHINGTON    CLOUDY    36  28  73 SW21      29.54F
$$

IAZ001>003-012>014-020>022-031-032-NEZ013-014-SDZ071-191800-
NORTHWEST IOWA

CITY           SKY/WX    TMP DP  RH WIND       PRES   REMARKS
CHEROKEE       CLOUDY    43  26  52 SW8       29.64R
DENISON        CLOUDY    37  27  65 SW15G22   29.71S
ESTHERVILLE    CLOUDY    37  28  70 SW16G24   29.57F
LE MARS        CLOUDY    39  28  65 S13       29.63R
ORANGE CITY    CLOUDY    43  30  61 SW13      29.61S
SHELDON        CLOUDY    39  28  65 S14G22    29.58S
SIOUX CITY     CLOUDY    40  29  64 SE12      29.65S
SPENCER        CLOUDY    43  28  55 SW18G24   29.60S
STORM LAKE     CLOUDY    41  27  56 SW10G17   29.65R
$$

ABBREVIATIONS USED IN REMARKS
   TC - TEMPERATURE IN CELSIUS
  WCI - WIND CHILL INDEX
   HX - HEAT INDEX
  VSB - VISIBILITY




USA.gov is the U.S. government's official web portal to all federal, state and local government web resources and services.